Location: Hormuz
(27.0871°N, 56.4580°E)
Time: 17:14:26
(UTC+04:30)

Envisat - Visible Passes

Search period start: 06 April 2020 00:00
Search period end: 16 April 2020 00:00
Orbit: 764 x 766 km, 98.1° (Epoch: 05 April)

Date Brightness Start Highest point End Pass type
(mag) Time Alt. Az. Time Alt. Az. Time Alt. Az.
08 Apr 5.7 19:26:49 10° SSW 19:30:51 24° W 19:34:55 10° NW visible
10 Apr 6.2 19:54:33 10° WSW 19:56:27 12° W 19:58:23 10° WNW visible
12 Apr 6.2 05:54:32 10° ENE 05:56:42 13° E 05:58:53 10° ESE visible
13 Apr 5.9 19:41:58 10° SW 19:45:05 16° W 19:48:13 10° WNW visible
